Home   Weather   El Monte   Past weeks

Flag for USA Past Weather in El Monte, California, USA — Yesterday and Last 2 Weeks

Now
61 °F

Overcast.


Feels Like: 61 °F
Forecast: 54 / 72 °F
Wind: No wind

Location: Fullerton Municipal Airport

Current Time: May 27, 2017 at 5:04:35 am

Latest Report: May 27, 2017 at 3:53 am


Visibility: 10 mi

Pressure: 30.00 "Hg

Humidity: 78%

Dew Point: 54 °F

Location of El MonteLocation

Past Weather in El Monte — Graph

°F

El Monte Temperature Yesterday

Maximum temperature yesterday: 72 °F (at 1:53 pm)
Minimum temperature yesterday: 61 °F (at 11:53 pm)
Average temperature yesterday: 66 °F

High & Low Weather Summary for the Past Weeks

 TemperatureHumidityPressure
High95 °F (May 20, 1:53 pm)93% (May 22, 12:53 am)30.03 "Hg (May 22, 12:53 am)
Low54 °F (May 16, 3:41 am)15% (May 20, 11:53 am)29.78 "Hg (May 20, 5:53 pm)
Average66 °F64%29.90 "Hg
* Reported May 12 3:53 am — May 27 3:53 am, El Monte. Weather by CustomWeather, © 2017

Note: Actual official high and low records may vary slightly from our data, if they occured in-between our weather recording intervals... More about our weather records

Advertising

El Monte Weather History for the Previous 24 Hours

Scroll right to see more
 ConditionsComfort  
Time TempWeatherWind HumidityBarometerVisibility
3:53 am
Sat, May 27
61 °FOvercast.No wind78%30.00 "Hg10 mi
2:53 am60 °FOvercast.3 mph80%30.01 "Hg10 mi
1:53 am59 °FClear.No wind84%30.01 "Hg10 mi
12:53 am60 °FClear.No wind78%30.01 "Hg10 mi
11:53 pm
Fri, May 26
61 °FClear.No wind67%30.01 "Hg10 mi
10:53 pm62 °FClear.No wind65%30.01 "Hg10 mi
9:53 pm63 °FClear.6 mph63%29.99 "Hg10 mi
8:53 pm64 °FOvercast.5 mph61%29.98 "Hg10 mi
7:53 pm66 °FPassing clouds.7 mph56%29.97 "Hg10 mi
6:53 pm68 °FPartly sunny.6 mph59%29.96 "Hg10 mi
5:53 pm69 °FPartly sunny.8 mph51%29.95 "Hg10 mi
4:53 pm70 °FPartly sunny.7 mph49%29.95 "Hg10 mi
3:53 pm70 °FPartly sunny.7 mph51%29.96 "Hg10 mi
2:53 pm69 °FPartly sunny.9 mph55%29.97 "Hg10 mi
1:53 pm72 °FPartly sunny.9 mph52%29.98 "Hg10 mi
12:53 pm71 °FPartly sunny.9 mph51%29.98 "Hg10 mi
11:53 am71 °FOvercast.6 mph51%29.97 "Hg10 mi
10:53 am69 °FPartly sunny.6 mph51%29.97 "Hg10 mi
9:53 am70 °FMostly cloudy.No wind49%29.97 "Hg10 mi
7:53 am65 °FOvercast.6 mph59%29.95 "Hg10 mi
6:53 am63 °FOvercast.5 mph65%29.94 "Hg10 mi
5:53 am63 °FOvercast.5 mph68%29.93 "Hg10 mi
Weather by CustomWeather, © 2017

See weather overviewHow to use our weather pages